Weather History for KDIK - July, 2013

Change the Weather History Date:

Saturday, July 27, 2013

  Actual Average Record
Temperature  
Mean Temperature 56 °F 71 °F  
Max Temperature 72 °F 85 °F 109 °F (1931)
Min Temperature 40 °F 56 °F 40 °F (1971)
Degree Days  
Heating Degree Days 9 1  
Month to date heating degree days 27 33  
Since 1 June heating degree days 151 170  
Since 1 July heating degree days 27 33  
Cooling Degree Days 0 6  
Month to date cooling degree days 107 138  
Year to date cooling degree days 142 202  
Since 1 June cooling degree days 133 192  
Growing Degree Days 6 (Base 50)    
Moisture  
Dew Point 40 °F    
Average Humidity 61    
Maximum Humidity 92    
Minimum Humidity 29    
Precipitation  
Precipitation 0.00 in 0.06 in 0.60 in (1979)
Month to date precipitation 1.93 2.20  
Year to date precipitation 11.34 10.51  
Sea Level Pressure  
Sea Level Pressure 30.13 in    
Wind  
Wind Speed 11 mph (ESE)    
Max Wind Speed 17 mph    
Max Gust Speed 23 mph    
Visibility 10 miles    
Events      
T = Trace of Precipitation, MM = Missing Value Source: NWS Daily Summary

Daily Weather History Graph

Daily Weather History Graph

Search for Another Location

Airport or City:

Trip Planner

Search our weather history database for the weather conditions in past years. The results will help you decide how hot, cold, wet, or windy it might be!

Date:

Astronomy

Jul. 27, 2013 Rise Set
Actual Time 5:25 AM MDT 8:29 PM MDT
Civil Twilight 4:49 AM MDT 9:04 PM MDT
Nautical Twilight 4:03 AM MDT 9:51 PM MDT
Astronomical Twilight 3:06 AM MDT 10:47 PM MDT
Moon 10:50 PM MDT (7/27) 11:34 AM MDT (7/27)
Length of Visible Light 16h 15m
Length of Day
15h 03m
Waning Gibbous, 70% of the Moon is Illuminated
Jul 27
Waning Gibbous
Jul 29
Last Quarter
Aug 6
New
Aug 14
First Quarter
Aug 20
Full

Hourly Weather History & Observations

Time (MDT) Temp. Windchill Dew Point Humidity Pressure Visibility Wind Dir Wind Speed Gust Speed Precip Events Conditions
12:56 AM 46.9 °F - 39.9 °F 77% 30.26 in 10.0 mi ESE 4.6 mph - N/A   Clear
1:56 AM 45.0 °F 41.8 °F 39.9 °F 82% 30.25 in 10.0 mi SE 5.8 mph - N/A   Clear
2:56 AM 43.0 °F 38.2 °F 37.9 °F 82% 30.23 in 10.0 mi East 8.1 mph - N/A   Clear
3:56 AM 42.1 °F 37.7 °F 37.9 °F 85% 30.23 in 10.0 mi ESE 6.9 mph - N/A   Clear
4:56 AM 39.9 °F 35.8 °F 37.0 °F 89% 30.24 in 10.0 mi ESE 5.8 mph - N/A   Clear
5:56 AM 41.0 °F 35.8 °F 37.9 °F 89% 30.24 in 10.0 mi ESE 8.1 mph - N/A   Clear
6:56 AM 48.0 °F - 43.0 °F 83% 30.23 in 10.0 mi ESE 9.2 mph - N/A   Clear
7:56 AM 55.0 °F - 46.0 °F 72% 30.22 in 10.0 mi SE 11.5 mph - N/A   Clear
8:56 AM 59.0 °F - 44.1 °F 58% 30.21 in 10.0 mi SE 11.5 mph - N/A   Clear
9:56 AM 62.1 °F - 44.1 °F 52% 30.19 in 10.0 mi ESE 15.0 mph - N/A   Clear
10:56 AM 64.0 °F - 43.0 °F 46% 30.17 in 10.0 mi SSE 11.5 mph 17.3 mph N/A   Clear
11:56 AM 66.0 °F - 43.0 °F 43% 30.14 in 10.0 mi SSE 13.8 mph 17.3 mph N/A   Clear
12:56 PM 69.1 °F - 42.1 °F 38% 30.12 in 10.0 mi SSE 15.0 mph - N/A   Clear
1:56 PM 71.1 °F - 39.0 °F 31% 30.10 in 10.0 mi ESE 12.7 mph 18.4 mph N/A   Clear
2:56 PM 71.1 °F - 39.0 °F 31% 30.08 in 10.0 mi SE 15.0 mph 19.6 mph N/A   Clear
3:56 PM 72.0 °F - 39.0 °F 30% 30.06 in 10.0 mi SE 12.7 mph 20.7 mph N/A   Clear
4:56 PM 71.1 °F - 37.9 °F 30% 30.05 in 10.0 mi ESE 11.5 mph - N/A   Clear
5:56 PM 70.0 °F - 37.9 °F 31% 30.04 in 10.0 mi ESE 12.7 mph - N/A   Clear
6:56 PM 68.0 °F - 39.0 °F 35% 30.04 in 10.0 mi ESE 12.7 mph - N/A   Clear
7:56 PM 62.1 °F - 41.0 °F 46% 30.02 in 10.0 mi East 8.1 mph - N/A   Clear
8:56 PM 53.1 °F - 41.0 °F 64% 30.03 in 10.0 mi East 8.1 mph - N/A   Clear
9:56 PM 51.1 °F - 41.0 °F 68% 30.03 in 10.0 mi ESE 8.1 mph - N/A   Clear
10:56 PM 50.0 °F - 39.0 °F 66% 30.02 in 10.0 mi ESE 9.2 mph - N/A   Clear
11:56 PM 46.0 °F 41.4 °F 39.0 °F 76% 30.02 in 10.0 mi ESE 9.2 mph - N/A   Clear